This is the latest recevied weather packets stored in our database for station/object K4AXV-13. If no packets are shown the sender has not sent any weather packets the latest 10 day(s).
| Time | Temp. | Humidity | Pressure | Rain* | Wind** | Luminosity | Snow |
|---|---|---|---|---|---|---|---|
| 1777595749 | 18.89° C | - | - | 0 mm | 0 m/s | - | - |
| 1777595450 | 19.44° C | - | - | 0 mm | 0 m/s | - | - |
| 1777595148 | 19.44° C | - | - | 0 mm | 0 m/s | - | - |
| 1777594849 | 19.44° C | - | - | 0 mm | 0 m/s | - | - |
| 1777594548 | 19.44° C | - | - | 0 mm | 0 m/s | - | - |
| 1777594248 | 19.44° C | - | - | 0 mm | 0 m/s | - | - |
| 1777593648 | 20° C | - | - | 0 mm | 0 m/s | - | - |
| 1777593047 | 20° C | - | - | 0 mm | 0 m/s | - | - |
| 1777592746 | 20° C | - | - | 0 mm | 0.45 m/s, 127° | - | - |
| 1777592447 | 20° C | - | - | 0 mm | 0.89 m/s, 150° | - | - |
| 1777591246 | 20.56° C | - | - | 0 mm | 0 m/s | - | - |
| 1777590944 | 20.56° C | - | - | 0 mm | 0 m/s | - | - |
| 1777590045 | 21.11° C | - | - | 0 mm | 0.89 m/s, 121° | - | - |
| 1777589743 | 21.11° C | - | - | 0 mm | 0.45 m/s, 132° | - | - |
| 1777589444 | 21.11° C | - | - | 0 mm | 1.34 m/s, 110° | - | - |
| 1777589143 | 21.11° C | - | - | 0 mm | 0.89 m/s, 141° | - | - |
| 1777588844 | 21.67° C | - | - | 0 mm | 1.34 m/s, 135° | - | - |
| 1777588542 | 21.67° C | - | - | 0 mm | 2.24 m/s, 117° | - | - |
| 1777588243 | 21.67° C | - | - | 0 mm | 1.79 m/s, 121° | - | - |
| 1777587941 | 21.67° C | - | - | 0 mm | 1.34 m/s, 129° | - | - |
| 1777587642 | 21.67° C | - | - | 0 mm | 2.68 m/s, 160° | - | - |
| 1777587340 | 21.67° C | - | - | 0 mm | 0.89 m/s, 110° | - | - |
| 1777587041 | 22.22° C | - | - | 0 mm | 0.45 m/s, 89° | - | - |
| 1777586739 | 21.67° C | - | - | 0 mm | 0.89 m/s, 90° | - | - |
| 1777586441 | 22.22° C | - | - | 0 mm | 1.79 m/s, 165° | - | - |
* Rain latest hour (hover to see other rain measurements)
** Current wind speed in m/s (hover to see current wind gust speed)